C/2020 K7 ( PanSTARRS )

Japanese version
Home page
Updated on February 21, 2021

---------------------------------------------------------------------

* Profile

Discovery Date May 30, 2020
Magnitude 20.2 mag
Discoverer Pan-STARRS 1 telescope (Haleakala)

* Pictures

* Orbital Elements

Epoch 2019 Nov. 13.0 TT = JDT 2458800.5
T 2019 Oct. 27.47660 TT                                 Rudenko
q   6.3823298            (2000.0)            P               Q
z  +0.0082053      Peri.  357.99116     +0.24879638     +0.82346317
 +/-0.0000000      Node   286.11158     -0.88106798     -0.02623622
e   0.9476311      Incl.   32.05662     -0.40226803     +0.56676279
From 82 observations 2020 May 30-Nov. 18, mean residual 0".5.

* Magnitudes Graph

        m1 = 7.0 + 5 log d + 10.0 log r

---------------------------------------------------------------------

The orbital elements are published on M.P.E.C. 2021-B143.
The magnitudes graphs are made with Comet for Windows.

---------------------------------------------------------------------

Copyright(C) Seiichi Yoshida (comet@aerith.net). All rights reserved.